Miscellaneous Local Product
Issued by NWS North Platte, NE

Home | Current Version | Previous Version | Text Only | Print | Product List | Glossary On
Versions: 1 2 3 4 5 6 7 8 9 10 11 12 13 14 15 16 17 18 19 20 21 22 23 24 25 26 27 28 29 30 31 32 33 34 35 36 37 38 39 40 41 42 43 44 45 46 47 48 49 50
000
AXUS43 KLBF 301910
MISLBF


WESTERN AND NORTH CENTRAL NEBRASKA HOURLY WEATHER ROUNDUP
NATIONAL WEATHER SERVICE NORTH PLATTE NE
200 PM CDT SUN AUG 30 2015

NOTE: "FAIR" INDICATES FEW OR NO CLOUDS BELOW 12,000 FEET WITH NO
SIGNIFICANT WEATHER AND/OR OBSTRUCTIONS TO VISIBILITY.

NOTE: STATIONS NOT REPORTING VARIABLES SUCH AS SKY/WEATHER OR
PRESSURE ARE PROVIDED BY THE NEBRASKA DEPARTMENT OF
ROADS...RAWS...AND APRS NETWORKS...AND ARE NOT UNDER
NATIONAL WEATHER SERVICE QUALITY CONTROL.

...OBSERVATIONS IN AND NEAR THE EASTERN PANHANDLE OF NEBRASKA...

CITY           SKY/WX    TMP DP  RH WIND       PRES   REMARKS
PINE RIDGE     MOSUNNY   94  50  22 S15       29.86F HX  91
CHADRON        SUNNY     98  44  15 S7        29.83F HX  94
ALLIANCE       MOSUNNY   94  47  20 S14       29.93F HX  90
SIDNEY         SUNNY     94  48  20 S14G20    30.00F HX  90
CRESCENT LAKE    N/A     92  50  23 S13G23      N/A
BIG SPRINGS      N/A     91  53  27 S12         N/A
$$

...OBSERVATIONS IN NORTH CENTRAL NEBRASKA...

CITY           SKY/WX    TMP DP  RH WIND       PRES   REMARKS
VALENTINE      CLOUDY    95  44  17 S22G36    29.87F HX  91
THEDFORD       SUNNY     92  49  22 S20G26    29.96S HAZE
AINSWORTH      SUNNY     91  47  22 S24       29.92S
O`NEILL        SUNNY     86  64  47 S12       29.95S
ORD            SUNNY     87  58  37 S14G20    29.95F
BROKEN BOW     SUNNY     88  59  37 S15G24    29.98F
SPRINGVIEW       N/A     91  56  30 SW12G22     N/A
SARGENT          N/A     87  59  38 CALM        N/A
CHAMBERS         N/A     87  62  42 S8G15       N/A
EWING            N/A     80  69  70 S7          N/A
$$

...OBSERVATIONS IN SOUTHWEST NEBRASKA AND FAR NORTHEAST COLORADO...

CITY           SKY/WX    TMP DP  RH WIND       PRES   REMARKS
WRAY           CLOUDY    96  40  14 S16G25    30.00F HX  92
HOLYOKE        FAIR      95  52  23 S12       30.00F HX  92
IMPERIAL       SUNNY     92  42  17 S18G28    29.99F
OGALLALA       SUNNY     92  44  19 S21G26    29.97F
NORTH PLATTE   SUNNY     90  50  25 S14       29.97F
MCCOOK         SUNNY     94  43  17 S17       29.98F HX  90
LEXINGTON      SUNNY     87  58  36 S13       29.99F
PAXTON           N/A     89  53  28 S16         N/A
BRADY            N/A     88  57  34 CALM        N/A
CALLAWAY         N/A     86  64  48 S14         N/A
$$

...OBSERVATIONS IN CENTRAL LINCOLN COUNTY AREA...

CITY           SKY/WX    TMP DP  RH WIND       PRES   REMARKS
N.P. AIRPORT   SUNNY     90  50  25 S14       29.97F
N.P. DOWNTOWN    N/A     90  49  24 S8G16       N/A
N.P. SOUTHEAST   N/A     90  46  21 S13G24      N/A
$$

...SOME OBSERVATIONS FROM AROUND THE REGION...

CITY           SKY/WX    TMP DP  RH WIND       PRES   REMARKS
DENVER         MOSUNNY   94  30  10 W7        30.09F
LARAMIE        MOSUNNY   84  36  18 SW10G24   30.19F
CHEYENNE       SUNNY     90  34  13 W10G23    30.10F
SCOTTSBLUFF    SUNNY     89  55  31 E12       29.93F
RAPID CITY     SUNNY     94  60  32 VRB7      29.79F HX  94
PIERRE         MOSUNNY   97  52  21 S20G25    29.74F HAZE    HX  94
WINNER         FAIR      93  53  25 S23G33    29.83F HX  90
SIOUX FALLS    SUNNY     74  64  71 S12       29.96F
OMAHA          CLOUDY    72  64  76 S10       30.04F
KANSAS CITY    PTSUNNY   82  65  56 E9        30.03F
WICHITA        PTSUNNY   82  65  56 CALM      30.02F
HAYS           SUNNY     84  57  39 S13       30.02F
LIBERAL        SUNNY     88  46  23 SE5       30.07F
GOODLAND       SUNNY     91  42  18 S21       30.04F HAZE
$$



USA.gov is the U.S. government's official web portal to all federal, state and local government web resources and services.